weather.gov     
National Weather Service

Regional Weather Roundup
NWS Homepage
This page is being discontinued on March 12, 2014.
The same data is available at this site. Please update your bookmarks.
Thank you, and we apologize for the inconvenience.
Please send an email to SR-SRH.Webmaster@noaa.gov with any concerns.


Current Version
Previous Version:    01  02  03  04  05  06  07  08  09  10  11  12  13  14  15  16  17  18  19  20  21  22  23  24  25  26  27  28  29  30  
   31  32  33  34  35  36  37  38  39  40  41  42  43  44  45  46  47  48  49  50  51  52  53  54  55  56  57  58  59  60  
[Printable]
714
ASUS43 KBIS 290820
RWRBIS

NWR BROADCAST TEXT
NATIONAL WEATHER SERVICE BISMARCK ND
300 AM CDT TUE JUL 29 2014

NOTE: "FAIR" INDICATES FEW OR NO CLOUDS BELOW 12,000 FEET WITH NO
SIGNIFICANT WEATHER AND/OR OBSTRUCTIONS TO VISIBILITY.


CITY           SKY/WX    TMP DP  RH WIND       PRES   REMARKS
WILLISTON      CLEAR     57  53  86 N3        30.22S
MINOT          CLEAR     58  54  86 SW8       30.21F
MINOT AFB      CLEAR     55  55  99 W5        30.21S
BISMARCK       CLEAR     54  52  93 NE3       30.24S
DICKINSON      CLEAR     55  50  83 S9        30.23F
GARRISON         N/A     55  53  93 CALM      30.23S
HETTINGER ARPT PTCLDY    50  46  86 CALM      30.26F
JAMESTOWN      CLEAR     53  49  86 W3        30.22S
CARRINGTON     FAIR      50  50 100 CALM      30.23S
CROSBY           N/A     57  57 100 SW8       30.22F
HARVEY         PTSUNNY   50  50 100 SW3       30.22F
HAZEN          FAIR      48  46  93 CALM      30.25R
LINTON         FAIR      48  48 100 E6        30.24S
MANDAN         FAIR      54  50  87 CALM      30.25S
RUGBY          FAIR      55  55 100 CALM      30.22S
STANLEY        CLOUDY    59  59 100 CALM      30.24S
TIOGA          FAIR      52  52 100 E3        30.26F FOG
WATFORD CITY   FAIR      52  50  93 CALM      30.21S
$$

CITY           SKY/WX    TMP DP  RH WIND       PRES   REMARKS
GRAND FORKS    CLEAR     54  52  93 W5        30.17F
GRAND FORKS AF CLEAR     54  54  99 W2        30.19S
DEVILS LAKE    CLEAR     57  52  82 CALM      30.20S
FARGO          CLEAR     55  52  89 CALM      30.18F
CANDO          FAIR      52  50  93 CALM      30.22S
CAVALIER       FAIR      54  52  94 W5        30.18S
GRAFTON        FAIR      55  55 100 NW3       30.17F
GWINNER        SUNNY     55  54  94 W7        30.22S
LANGDON        FAIR      45  45 100 W3        30.20F
ROLLA          FAIR      52  52 100 CALM      30.23F
WALHALLA         N/A     54  54 100 CALM        N/A
$$

CITY           SKY/WX    TMP DP  RH WIND       PRES   REMARKS
ABERDEEN       CLEAR     49  49 100 CALM      30.22F
MOBRIDGE       CLEAR     56  52  86 SE6       30.22S
BUFFALO          N/A     60  51  72 SE7       30.20F
RAPID CITY     CLEAR     53  49  86 CALM      30.28S
GLASGOW        CLEAR     60  47  61 E10       30.19F
SIDNEY         CLEAR     57  50  77 CALM      30.22F
WOLF POINT     CLEAR     57  45  64 CALM      30.21S
GLENDIVE       CLEAR     63  52  67 S8        30.24S
MILES CITY     PTCLDY    66  52  60 S7        30.21S
BAKER          PTCLDY    61  51  70 S9        30.25F
$$

CITY           SKY/WX    TMP DP  RH WIND       PRES   REMARKS
BILLINGS       CLOUDY    72  45  37 NE5       30.19F
GREAT FALLS    MOCLDY    72  48  42 SE9       30.16F
REGINA         CLEAR     61  59  94 S2        30.22S
ESTEVAN        MOCLDY    59  57  94 E2        30.23S
$$





U.S. Dept. of Commerce
NOAA National Weather Service
1325 East West Highway
Silver Spring, MD 20910
E-mail: w-nws.webmaster@noaa.gov
Page last modified: May 16, 2007
NATIONAL WEATHER SERVICE: for Safety, for Work, for Fun - FOR LIFE